Year,Month,Day,Hour,Minute,Value (Times are PST for temperature in C)
2009,07,30,00,00,24.10
2009,07,30,00,01,24.10
2009,07,30,00,02,24.00
2009,07,30,00,03,23.90
2009,07,30,00,04,23.90
2009,07,30,00,05,23.80
2009,07,30,00,06,23.80
2009,07,30,00,07,23.70
2009,07,30,00,08,23.70
2009,07,30,00,09,23.70
2009,07,30,00,10,23.70
2009,07,30,00,11,23.70
2009,07,30,00,12,23.70
2009,07,30,00,13,23.70
2009,07,30,00,14,23.70
2009,07,30,00,15,23.70
2009,07,30,00,16,23.70
2009,07,30,00,17,23.70
2009,07,30,00,18,23.70
2009,07,30,00,19,23.70
2009,07,30,00,20,23.70
2009,07,30,00,21,23.70
2009,07,30,00,22,23.60
2009,07,30,00,23,23.60
2009,07,30,00,24,23.60
2009,07,30,00,25,23.60
2009,07,30,00,26,23.60
2009,07,30,00,27,23.60
2009,07,30,00,28,23.60
2009,07,30,00,29,23.70
2009,07,30,00,30,23.70
2009,07,30,00,31,23.70
2009,07,30,00,32,23.70
2009,07,30,00,33,23.70
2009,07,30,00,34,23.70
2009,07,30,00,35,23.70
2009,07,30,00,36,23.70
2009,07,30,00,37,23.70
2009,07,30,00,38,23.70
2009,07,30,00,39,23.70
2009,07,30,00,40,23.80
2009,07,30,00,41,23.80
2009,07,30,00,42,23.80
2009,07,30,00,43,23.80
2009,07,30,00,44,23.80
2009,07,30,00,45,23.80
2009,07,30,00,46,23.80
2009,07,30,00,47,23.80
2009,07,30,00,48,23.90
2009,07,30,00,49,23.90
2009,07,30,00,50,23.90
2009,07,30,00,51,23.90
2009,07,30,00,52,23.90
2009,07,30,00,53,23.90
2009,07,30,00,54,23.90
2009,07,30,00,55,24.00
2009,07,30,00,56,23.90
2009,07,30,00,57,23.90
2009,07,30,00,58,23.90
2009,07,30,00,59,23.90
2009,07,30,01,00,23.80
2009,07,30,01,01,23.80
2009,07,30,01,02,23.80
2009,07,30,01,03,23.70
2009,07,30,01,04,23.70
2009,07,30,01,05,23.70
2009,07,30,01,06,23.60
2009,07,30,01,07,23.60
2009,07,30,01,08,23.50
2009,07,30,01,09,23.40
2009,07,30,01,10,23.40
2009,07,30,01,11,23.30
2009,07,30,01,12,23.30
2009,07,30,01,13,23.30
2009,07,30,01,14,23.30
2009,07,30,01,15,23.20
2009,07,30,01,16,23.20
2009,07,30,01,17,23.20
2009,07,30,01,18,23.10
2009,07,30,01,19,23.10
2009,07,30,01,20,23.10
2009,07,30,01,21,22.90
2009,07,30,01,22,22.90
2009,07,30,01,23,22.90
2009,07,30,01,24,22.90
2009,07,30,01,25,22.90
2009,07,30,01,26,22.90
2009,07,30,01,27,22.90
2009,07,30,01,28,22.90
2009,07,30,01,29,22.80
2009,07,30,01,30,22.80
2009,07,30,01,31,22.80
2009,07,30,01,32,22.80
2009,07,30,01,33,22.80
2009,07,30,01,34,22.80
2009,07,30,01,35,22.80
2009,07,30,01,36,22.80
2009,07,30,01,37,22.80
2009,07,30,01,38,22.80
2009,07,30,01,39,22.80
2009,07,30,01,40,22.80
2009,07,30,01,41,22.80
2009,07,30,01,42,22.80
2009,07,30,01,43,22.80
2009,07,30,01,44,22.80
2009,07,30,01,45,22.80
2009,07,30,01,46,22.70
2009,07,30,01,47,22.80
2009,07,30,01,48,22.80
2009,07,30,01,49,22.80
2009,07,30,01,50,22.80
2009,07,30,01,51,22.80
2009,07,30,01,52,22.80
2009,07,30,01,53,22.80
2009,07,30,01,54,22.80
2009,07,30,01,55,22.80
2009,07,30,01,56,22.80
2009,07,30,01,57,22.80
2009,07,30,01,58,22.80
2009,07,30,01,59,22.80
2009,07,30,02,00,22.80
2009,07,30,02,01,22.80
2009,07,30,02,02,22.80
2009,07,30,02,03,22.80
2009,07,30,02,04,22.80
2009,07,30,02,05,22.80
2009,07,30,02,06,22.70
2009,07,30,02,07,22.70
2009,07,30,02,08,22.70
2009,07,30,02,09,22.70
2009,07,30,02,10,22.60
2009,07,30,02,11,22.60
2009,07,30,02,12,22.60
2009,07,30,02,13,22.60
2009,07,30,02,14,22.60
2009,07,30,02,15,22.60
2009,07,30,02,16,22.60
2009,07,30,02,17,22.50
2009,07,30,02,18,22.50
2009,07,30,02,19,22.50
2009,07,30,02,20,22.50
2009,07,30,02,21,22.50
2009,07,30,02,22,22.50
2009,07,30,02,23,22.50
2009,07,30,02,24,22.50
2009,07,30,02,25,22.50
2009,07,30,02,26,22.40
2009,07,30,02,27,22.40
2009,07,30,02,28,22.40
2009,07,30,02,29,22.40
2009,07,30,02,30,22.40
2009,07,30,02,31,22.50
2009,07,30,02,32,22.50
2009,07,30,02,33,22.50
2009,07,30,02,34,22.50
2009,07,30,02,35,22.50
2009,07,30,02,36,22.50
2009,07,30,02,37,22.50
2009,07,30,02,38,22.50
2009,07,30,02,39,22.50
2009,07,30,02,40,22.50
2009,07,30,02,41,22.60
2009,07,30,02,42,22.60
2009,07,30,02,43,22.60
2009,07,30,02,44,22.70
2009,07,30,02,45,22.70
2009,07,30,02,46,22.70
2009,07,30,02,47,22.70
2009,07,30,02,48,22.70
2009,07,30,02,49,22.70
2009,07,30,02,50,22.70
2009,07,30,02,51,22.70
2009,07,30,02,52,22.70
2009,07,30,02,53,22.70
2009,07,30,02,54,22.70
2009,07,30,02,55,22.70
2009,07,30,02,56,22.70
2009,07,30,02,57,22.70
2009,07,30,02,58,22.70
2009,07,30,02,59,22.70
2009,07,30,03,00,22.70
2009,07,30,03,01,22.70
2009,07,30,03,02,22.70
2009,07,30,03,03,22.70
2009,07,30,03,04,22.70
2009,07,30,03,05,22.70
2009,07,30,03,06,22.70
2009,07,30,03,07,22.70
2009,07,30,03,08,22.60
2009,07,30,03,09,22.60
2009,07,30,03,10,22.60
2009,07,30,03,11,22.60
2009,07,30,03,12,22.60
2009,07,30,03,13,22.60
2009,07,30,03,14,22.60
2009,07,30,03,15,22.60
2009,07,30,03,16,22.60
2009,07,30,03,17,22.60
2009,07,30,03,18,22.60
2009,07,30,03,19,22.60
2009,07,30,03,20,22.60
2009,07,30,03,21,22.60
2009,07,30,03,22,22.70
2009,07,30,03,23,22.70
2009,07,30,03,24,22.70
2009,07,30,03,25,22.80
2009,07,30,03,26,22.80
2009,07,30,03,27,22.80
2009,07,30,03,28,22.90
2009,07,30,03,29,22.90
2009,07,30,03,30,22.90
2009,07,30,03,31,22.90
2009,07,30,03,32,22.90
2009,07,30,03,33,22.90
2009,07,30,03,34,22.90
2009,07,30,03,35,22.90
2009,07,30,03,36,22.90
2009,07,30,03,37,23.00
2009,07,30,03,38,23.10
2009,07,30,03,39,23.10
2009,07,30,03,40,23.10
2009,07,30,03,41,23.10
2009,07,30,03,42,23.10
2009,07,30,03,43,23.10
2009,07,30,03,44,23.10
2009,07,30,03,45,23.10
2009,07,30,03,46,23.10
2009,07,30,03,47,23.10
2009,07,30,03,48,23.10
2009,07,30,03,49,23.10
2009,07,30,03,50,23.10
2009,07,30,03,51,23.10
2009,07,30,03,52,23.10
2009,07,30,03,53,23.10
2009,07,30,03,54,23.10
2009,07,30,03,55,23.10
2009,07,30,03,56,23.10
2009,07,30,03,57,23.10
2009,07,30,03,58,23.10
2009,07,30,03,59,23.10
2009,07,30,04,00,23.00
2009,07,30,04,01,22.90
2009,07,30,04,02,22.90
2009,07,30,04,03,22.90
2009,07,30,04,04,22.90
2009,07,30,04,05,22.90
2009,07,30,04,06,22.90
2009,07,30,04,07,22.90
2009,07,30,04,08,22.90
2009,07,30,04,09,22.90
2009,07,30,04,10,22.90
2009,07,30,04,11,22.90
2009,07,30,04,12,22.90
2009,07,30,04,13,22.90
2009,07,30,04,14,22.80
2009,07,30,04,15,22.80
2009,07,30,04,16,22.80
2009,07,30,04,17,22.80
2009,07,30,04,18,22.80
2009,07,30,04,19,22.80
2009,07,30,04,20,22.80
2009,07,30,04,21,22.80
2009,07,30,04,22,22.80
2009,07,30,04,23,22.80
2009,07,30,04,24,22.80
2009,07,30,04,25,22.80
2009,07,30,04,26,22.80
2009,07,30,04,27,22.80
2009,07,30,04,28,22.80
2009,07,30,04,29,22.80
2009,07,30,04,30,22.80
2009,07,30,04,31,22.80
2009,07,30,04,32,22.80
2009,07,30,04,33,22.70
2009,07,30,04,34,22.70
2009,07,30,04,35,22.70
2009,07,30,04,36,22.70
2009,07,30,04,37,22.70
2009,07,30,04,38,22.70
2009,07,30,04,39,22.70
2009,07,30,04,40,22.70
2009,07,30,04,41,22.60
2009,07,30,04,42,22.60
2009,07,30,04,43,22.60
2009,07,30,04,44,22.60
2009,07,30,04,45,22.60
2009,07,30,04,46,22.50
2009,07,30,04,47,22.50
2009,07,30,04,48,22.50
2009,07,30,04,49,22.40
2009,07,30,04,50,22.40
2009,07,30,04,51,22.40
2009,07,30,04,52,22.30
2009,07,30,04,53,22.30
2009,07,30,04,54,22.20
2009,07,30,04,55,22.10
2009,07,30,04,56,22.10
2009,07,30,04,57,22.00
2009,07,30,04,58,22.00
2009,07,30,04,59,22.00
2009,07,30,05,00,21.90
2009,07,30,05,01,21.80
2009,07,30,05,02,21.80
2009,07,30,05,03,21.80
2009,07,30,05,04,21.70
2009,07,30,05,05,21.70
2009,07,30,05,06,21.70
2009,07,30,05,07,21.70
2009,07,30,05,08,21.60
2009,07,30,05,09,21.60
2009,07,30,05,10,21.60
2009,07,30,05,11,21.60
2009,07,30,05,12,21.60
2009,07,30,05,13,21.60
2009,07,30,05,14,21.50
2009,07,30,05,15,21.40
2009,07,30,05,16,21.40
2009,07,30,05,17,21.30
2009,07,30,05,18,21.30
2009,07,30,05,19,21.30
2009,07,30,05,20,21.30
2009,07,30,05,21,21.30
2009,07,30,05,22,21.30
2009,07,30,05,23,21.30
2009,07,30,05,24,21.20
2009,07,30,05,25,21.20
2009,07,30,05,26,21.20
2009,07,30,05,27,21.10
2009,07,30,05,28,21.10
2009,07,30,05,29,21.10
2009,07,30,05,30,21.00
2009,07,30,05,31,21.00
2009,07,30,05,32,21.00
2009,07,30,05,33,20.90
2009,07,30,05,34,20.90
2009,07,30,05,35,20.90
2009,07,30,05,36,20.90
2009,07,30,05,37,20.80
2009,07,30,05,38,20.80
2009,07,30,05,39,20.80
2009,07,30,05,40,20.80
2009,07,30,05,41,20.70
2009,07,30,05,42,20.70
2009,07,30,05,43,20.70
2009,07,30,05,44,20.70
2009,07,30,05,45,20.70
2009,07,30,05,46,20.60
2009,07,30,05,47,20.60
2009,07,30,05,48,20.60
2009,07,30,05,49,20.60
2009,07,30,05,50,20.50
2009,07,30,05,51,20.50
2009,07,30,05,52,20.50
2009,07,30,05,53,20.40
2009,07,30,05,54,20.40
2009,07,30,05,55,20.40
2009,07,30,05,56,20.30
2009,07,30,05,57,20.30
2009,07,30,05,58,20.30
2009,07,30,05,59,20.30
2009,07,30,06,00,20.20
2009,07,30,06,01,20.20
2009,07,30,06,02,20.20
2009,07,30,06,03,20.20
2009,07,30,06,04,20.20
2009,07,30,06,05,20.20
2009,07,30,06,06,20.20
2009,07,30,06,07,20.20
2009,07,30,06,08,20.20
2009,07,30,06,09,20.20
2009,07,30,06,10,20.20
2009,07,30,06,11,20.20
2009,07,30,06,12,20.20
2009,07,30,06,13,20.20
2009,07,30,06,14,20.20
2009,07,30,06,15,20.20
2009,07,30,06,16,20.20
2009,07,30,06,17,20.20
2009,07,30,06,18,20.20
2009,07,30,06,19,20.10
2009,07,30,06,20,20.10
2009,07,30,06,21,20.10
2009,07,30,06,22,20.10
2009,07,30,06,23,20.10
2009,07,30,06,24,20.00
2009,07,30,06,25,19.90
2009,07,30,06,26,19.90
2009,07,30,06,27,19.90
2009,07,30,06,28,19.90
2009,07,30,06,29,19.90
2009,07,30,06,30,19.90
2009,07,30,06,31,19.90
2009,07,30,06,32,19.90
2009,07,30,06,33,19.90
2009,07,30,06,34,19.90
2009,07,30,06,35,19.90
2009,07,30,06,36,19.90
2009,07,30,06,37,19.90
2009,07,30,06,38,19.90
2009,07,30,06,39,19.90
2009,07,30,06,40,19.90
2009,07,30,06,41,19.90
2009,07,30,06,42,19.90
2009,07,30,06,43,19.90
2009,07,30,06,44,19.90
2009,07,30,06,45,19.90
2009,07,30,06,46,19.90
2009,07,30,06,47,19.90
2009,07,30,06,48,19.90
2009,07,30,06,49,19.90
2009,07,30,06,50,20.00
2009,07,30,06,51,20.10
2009,07,30,06,52,20.10
2009,07,30,06,53,20.10
2009,07,30,06,54,20.10
2009,07,30,06,55,20.10
2009,07,30,06,56,20.20
2009,07,30,06,57,20.20
2009,07,30,06,58,20.20
2009,07,30,06,59,20.20
2009,07,30,07,00,20.20
2009,07,30,07,01,20.20
2009,07,30,07,02,20.30
2009,07,30,07,03,20.30
2009,07,30,07,04,20.30
2009,07,30,07,05,20.40
2009,07,30,07,06,20.40
2009,07,30,07,07,20.50
2009,07,30,07,08,20.50
2009,07,30,07,09,20.60
2009,07,30,07,10,20.60
2009,07,30,07,11,20.70
2009,07,30,07,12,20.70
2009,07,30,07,13,20.80
2009,07,30,07,14,20.80
2009,07,30,07,15,20.80
2009,07,30,07,16,20.90
2009,07,30,07,17,20.90
2009,07,30,07,18,21.00
2009,07,30,07,19,21.00
2009,07,30,07,20,21.00
2009,07,30,07,21,21.10
2009,07,30,07,22,21.10
2009,07,30,07,23,21.20
2009,07,30,07,24,21.20
2009,07,30,07,25,21.30
2009,07,30,07,26,21.30
2009,07,30,07,27,21.30
2009,07,30,07,28,21.30
2009,07,30,07,29,21.30
2009,07,30,07,30,21.30
2009,07,30,07,31,21.40
2009,07,30,07,32,21.40
2009,07,30,07,33,21.50
2009,07,30,07,34,21.60
2009,07,30,07,35,21.60
2009,07,30,07,36,21.60
2009,07,30,07,37,21.70
2009,07,30,07,38,21.80
2009,07,30,07,39,21.80
2009,07,30,07,40,21.90
2009,07,30,07,41,21.90
2009,07,30,07,42,22.00
2009,07,30,07,43,22.00
2009,07,30,07,44,22.00
2009,07,30,07,45,22.10
2009,07,30,07,46,22.10
2009,07,30,07,47,22.20
2009,07,30,07,48,22.30
2009,07,30,07,49,22.30
2009,07,30,07,50,22.30
2009,07,30,07,51,22.40
2009,07,30,07,52,22.40
2009,07,30,07,53,22.50
2009,07,30,07,54,22.50
2009,07,30,07,55,22.60
2009,07,30,07,56,22.60
2009,07,30,07,57,22.60
2009,07,30,07,58,22.70
2009,07,30,07,59,22.70
2009,07,30,08,00,22.70
2009,07,30,08,01,22.70
2009,07,30,08,02,22.70
2009,07,30,08,03,22.80
2009,07,30,08,04,22.80
2009,07,30,08,05,22.80
2009,07,30,08,06,22.80
2009,07,30,08,07,22.90
2009,07,30,08,08,22.90
2009,07,30,08,09,22.90
2009,07,30,08,10,22.90
2009,07,30,08,11,22.90
2009,07,30,08,12,23.00
2009,07,30,08,13,23.10
2009,07,30,08,14,23.10
2009,07,30,08,15,23.10
2009,07,30,08,16,23.10
2009,07,30,08,17,23.20
2009,07,30,08,18,23.20
2009,07,30,08,19,23.30
2009,07,30,08,20,23.30
2009,07,30,08,21,23.30
2009,07,30,08,22,23.30
2009,07,30,08,23,23.40
2009,07,30,08,24,23.40
2009,07,30,08,25,23.50
2009,07,30,08,26,23.60
2009,07,30,08,27,23.70
2009,07,30,08,28,23.70
2009,07,30,08,29,23.80
2009,07,30,08,30,23.90
2009,07,30,08,31,24.00
2009,07,30,08,32,24.10
2009,07,30,08,33,24.20
2009,07,30,08,34,24.30
2009,07,30,08,35,24.40
2009,07,30,08,36,24.50
2009,07,30,08,37,24.60
2009,07,30,08,38,24.60
2009,07,30,08,39,24.70
2009,07,30,08,40,24.80
2009,07,30,08,41,24.80
2009,07,30,08,42,24.90
2009,07,30,08,43,24.90
2009,07,30,08,44,25.00
2009,07,30,08,45,25.10
2009,07,30,08,46,25.20
2009,07,30,08,47,25.30
2009,07,30,08,48,25.40
2009,07,30,08,49,25.40
2009,07,30,08,50,25.50
2009,07,30,08,51,25.60
2009,07,30,08,52,25.60
2009,07,30,08,53,25.70
2009,07,30,08,54,25.70
2009,07,30,08,55,25.80
2009,07,30,08,56,25.90
2009,07,30,08,57,25.90
2009,07,30,08,58,25.90
2009,07,30,08,59,25.90
2009,07,30,09,00,26.00
2009,07,30,09,01,25.90
2009,07,30,09,02,25.90
2009,07,30,09,03,25.90
2009,07,30,09,04,26.00
2009,07,30,09,05,26.00
2009,07,30,09,06,26.00
2009,07,30,09,07,26.10
2009,07,30,09,08,26.10
2009,07,30,09,09,26.20
2009,07,30,09,10,26.20
2009,07,30,09,11,26.30
2009,07,30,09,12,26.40
2009,07,30,09,13,26.50
2009,07,30,09,14,26.60
2009,07,30,09,15,26.60
2009,07,30,09,16,26.70
2009,07,30,09,17,26.80
2009,07,30,09,18,26.90
2009,07,30,09,19,26.90
2009,07,30,09,20,26.90
2009,07,30,09,21,27.00
2009,07,30,09,22,27.10
2009,07,30,09,23,27.20
2009,07,30,09,24,27.20
2009,07,30,09,25,27.30
2009,07,30,09,26,27.30
2009,07,30,09,27,27.40
2009,07,30,09,28,27.50
2009,07,30,09,29,27.60
2009,07,30,09,30,27.70
2009,07,30,09,31,27.80
2009,07,30,09,32,27.80
2009,07,30,09,33,27.90
2009,07,30,09,34,28.00
2009,07,30,09,35,28.10
2009,07,30,09,36,28.10
2009,07,30,09,37,28.20
2009,07,30,09,38,28.30
2009,07,30,09,39,28.30
2009,07,30,09,40,28.40
2009,07,30,09,41,28.40
2009,07,30,09,42,28.40
2009,07,30,09,43,28.50
2009,07,30,09,44,28.60
2009,07,30,09,45,28.70
2009,07,30,09,46,28.70
2009,07,30,09,47,28.80
2009,07,30,09,48,28.80
2009,07,30,09,49,28.80
2009,07,30,09,50,28.80
2009,07,30,09,51,28.80
2009,07,30,09,52,28.80
2009,07,30,09,53,28.80
2009,07,30,09,54,28.80
2009,07,30,09,55,28.90
2009,07,30,09,56,28.90
2009,07,30,09,57,28.90
2009,07,30,09,58,28.90
2009,07,30,09,59,28.90
2009,07,30,10,00,28.90
2009,07,30,10,01,28.90
2009,07,30,10,02,28.90
2009,07,30,10,03,28.90
2009,07,30,10,04,28.90
2009,07,30,10,05,28.90
2009,07,30,10,06,28.90
2009,07,30,10,07,28.90
2009,07,30,10,08,29.00
2009,07,30,10,09,29.00
2009,07,30,10,10,28.90
2009,07,30,10,11,28.90
2009,07,30,10,12,28.90
2009,07,30,10,13,28.90
2009,07,30,10,14,28.90
2009,07,30,10,15,28.90
2009,07,30,10,16,28.90
2009,07,30,10,17,28.90
2009,07,30,10,18,28.90
2009,07,30,10,19,28.90
2009,07,30,10,20,29.10
2009,07,30,10,21,29.10
2009,07,30,10,22,29.10
2009,07,30,10,23,29.20
2009,07,30,10,24,29.20
2009,07,30,10,25,29.20
2009,07,30,10,26,29.20
2009,07,30,10,27,29.20
2009,07,30,10,28,29.10
2009,07,30,10,29,29.10
2009,07,30,10,30,29.10
2009,07,30,10,31,29.00
2009,07,30,10,32,28.90
2009,07,30,10,33,28.90
2009,07,30,10,34,28.90
2009,07,30,10,35,28.90
2009,07,30,10,36,29.00
2009,07,30,10,37,29.10
2009,07,30,10,38,29.10
2009,07,30,10,39,29.10
2009,07,30,10,40,29.10
2009,07,30,10,41,29.10
2009,07,30,10,42,29.10
2009,07,30,10,43,29.20
2009,07,30,10,44,29.20
2009,07,30,10,45,29.20
2009,07,30,10,46,29.20
2009,07,30,10,47,29.20
2009,07,30,10,48,29.20
2009,07,30,10,49,29.20
2009,07,30,10,50,29.20
2009,07,30,10,51,29.20
2009,07,30,10,52,29.20
2009,07,30,10,53,29.20
2009,07,30,10,54,29.20
2009,07,30,10,55,29.10
2009,07,30,10,56,29.10
2009,07,30,10,57,29.10
2009,07,30,10,58,29.10
2009,07,30,10,59,29.10
2009,07,30,11,00,29.10
2009,07,30,11,01,29.10
2009,07,30,11,02,29.20
2009,07,30,11,03,29.20
2009,07,30,11,04,29.30
2009,07,30,11,05,29.30
2009,07,30,11,06,29.30
2009,07,30,11,07,29.30
2009,07,30,11,08,29.40
2009,07,30,11,09,29.50
2009,07,30,11,10,29.50
2009,07,30,11,11,29.60
2009,07,30,11,12,29.60
2009,07,30,11,13,29.70
2009,07,30,11,14,29.70
2009,07,30,11,15,29.70
2009,07,30,11,16,29.80
2009,07,30,11,17,29.80
2009,07,30,11,18,29.80
2009,07,30,11,19,29.80
2009,07,30,11,20,29.80
2009,07,30,11,21,29.80
2009,07,30,11,22,29.80
2009,07,30,11,23,29.90
2009,07,30,11,24,29.90
2009,07,30,11,25,29.90
2009,07,30,11,26,29.90
2009,07,30,11,27,29.90
2009,07,30,11,28,29.90
2009,07,30,11,29,29.90
2009,07,30,11,30,30.00
2009,07,30,11,31,30.10
2009,07,30,11,32,30.10
2009,07,30,11,33,30.20
2009,07,30,11,34,30.30
2009,07,30,11,35,30.40
2009,07,30,11,36,30.50
2009,07,30,11,37,30.60
2009,07,30,11,38,30.70
2009,07,30,11,39,30.70
2009,07,30,11,40,30.70
2009,07,30,11,41,30.60
2009,07,30,11,42,30.60
2009,07,30,11,43,30.60
2009,07,30,11,44,30.60
2009,07,30,11,45,30.60
2009,07,30,11,46,30.70
2009,07,30,11,47,30.80
2009,07,30,11,48,30.80
2009,07,30,11,49,30.90
2009,07,30,11,50,31.00
2009,07,30,11,51,31.00
2009,07,30,11,52,31.10
2009,07,30,11,53,31.10
2009,07,30,11,54,31.10
2009,07,30,11,55,31.10
2009,07,30,11,56,31.20
2009,07,30,11,57,31.20
2009,07,30,11,58,31.20
2009,07,30,11,59,31.30
2009,07,30,12,00,31.30
2009,07,30,12,01,31.40
2009,07,30,12,02,31.40
2009,07,30,12,03,31.50
2009,07,30,12,04,31.60
2009,07,30,12,05,31.60
2009,07,30,12,06,31.70
2009,07,30,12,07,31.70
2009,07,30,12,08,31.80
2009,07,30,12,09,31.80
2009,07,30,12,10,31.80
2009,07,30,12,11,31.80
2009,07,30,12,12,31.80
2009,07,30,12,13,31.80
2009,07,30,12,14,31.80
2009,07,30,12,15,31.70
2009,07,30,12,16,31.60
2009,07,30,12,17,31.60
2009,07,30,12,18,31.60
2009,07,30,12,19,31.60
2009,07,30,12,20,31.70
2009,07,30,12,21,31.70
2009,07,30,12,22,31.70
2009,07,30,12,23,31.70
2009,07,30,12,24,31.70
2009,07,30,12,25,31.70
2009,07,30,12,26,31.70
2009,07,30,12,27,31.70
2009,07,30,12,28,31.80
2009,07,30,12,29,31.90
2009,07,30,12,30,32.00
2009,07,30,12,31,32.10
2009,07,30,12,32,32.10
2009,07,30,12,33,32.20
2009,07,30,12,34,32.30
2009,07,30,12,35,32.30
2009,07,30,12,36,32.30
2009,07,30,12,37,32.40
2009,07,30,12,38,32.30
2009,07,30,12,39,32.30
2009,07,30,12,40,32.30
2009,07,30,12,41,32.30
2009,07,30,12,42,32.40
2009,07,30,12,43,32.40
2009,07,30,12,44,32.50
2009,07,30,12,45,32.60
2009,07,30,12,46,32.60
2009,07,30,12,47,32.60
2009,07,30,12,48,32.60
2009,07,30,12,49,32.80
2009,07,30,12,50,32.80
2009,07,30,12,51,32.90
2009,07,30,12,52,32.90
2009,07,30,12,53,32.90
2009,07,30,12,54,32.90
2009,07,30,12,55,32.80
2009,07,30,12,56,32.60
2009,07,30,12,57,32.50
2009,07,30,12,58,32.40
2009,07,30,12,59,32.30
2009,07,30,13,00,32.30
2009,07,30,13,01,32.30
2009,07,30,13,02,32.20
2009,07,30,13,03,32.20
2009,07,30,13,04,32.20
2009,07,30,13,05,32.20
2009,07,30,13,06,32.20
2009,07,30,13,07,32.20
2009,07,30,13,08,32.30
2009,07,30,13,09,32.30
2009,07,30,13,10,32.30
2009,07,30,13,11,32.40
2009,07,30,13,12,32.50
2009,07,30,13,13,32.50
2009,07,30,13,14,32.50
2009,07,30,13,15,32.50
2009,07,30,13,16,32.60
2009,07,30,13,17,32.60
2009,07,30,13,18,32.60
2009,07,30,13,19,32.80
2009,07,30,13,20,32.70
2009,07,30,13,21,32.60
2009,07,30,13,22,32.60
2009,07,30,13,23,32.50
2009,07,30,13,24,32.50
2009,07,30,13,25,32.40
2009,07,30,13,26,32.40
2009,07,30,13,27,32.40
2009,07,30,13,28,32.50
2009,07,30,13,29,32.50
2009,07,30,13,30,32.50
2009,07,30,13,31,32.50
2009,07,30,13,32,32.50
2009,07,30,13,33,32.50
2009,07,30,13,34,32.40
2009,07,30,13,35,32.30
2009,07,30,13,36,32.20
2009,07,30,13,37,32.20
2009,07,30,13,38,32.20
2009,07,30,13,39,32.20
2009,07,30,13,40,32.20
2009,07,30,13,41,32.30
2009,07,30,13,42,32.30
2009,07,30,13,43,32.30
2009,07,30,13,44,32.30
2009,07,30,13,45,32.30
2009,07,30,13,46,32.30
2009,07,30,13,47,32.40
2009,07,30,13,48,32.60
2009,07,30,13,49,32.70
2009,07,30,13,50,32.80
2009,07,30,13,51,32.80
2009,07,30,13,52,32.90
2009,07,30,13,53,33.00
2009,07,30,13,54,33.20
2009,07,30,13,55,33.30
2009,07,30,13,56,33.40
2009,07,30,13,57,33.50
2009,07,30,13,58,33.60
2009,07,30,13,59,33.70
2009,07,30,14,00,33.60
2009,07,30,14,01,33.60
2009,07,30,14,02,33.60
2009,07,30,14,03,33.60
2009,07,30,14,04,33.60
2009,07,30,14,05,33.50
2009,07,30,14,06,33.50
2009,07,30,14,07,33.50
2009,07,30,14,08,33.50
2009,07,30,14,09,33.40
2009,07,30,14,10,33.50
2009,07,30,14,11,33.50
2009,07,30,14,12,33.50
2009,07,30,14,13,33.50
2009,07,30,14,14,33.40
2009,07,30,14,15,33.40
2009,07,30,14,16,33.40
2009,07,30,14,17,33.50
2009,07,30,14,18,33.50
2009,07,30,14,19,33.60
2009,07,30,14,20,33.60
2009,07,30,14,21,33.70
2009,07,30,14,22,33.80
2009,07,30,14,23,33.80
2009,07,30,14,24,34.00
2009,07,30,14,25,34.10
2009,07,30,14,26,34.20
2009,07,30,14,27,34.30
2009,07,30,14,28,34.40
2009,07,30,14,29,34.40
2009,07,30,14,30,34.30
2009,07,30,14,31,34.20
2009,07,30,14,32,34.20
2009,07,30,14,33,34.20
2009,07,30,14,34,34.30
2009,07,30,14,35,34.40
2009,07,30,14,36,34.30
2009,07,30,14,37,34.20
2009,07,30,14,38,34.10
2009,07,30,14,39,34.10
2009,07,30,14,40,34.20
2009,07,30,14,41,34.20
2009,07,30,14,42,34.20
2009,07,30,14,43,34.20
2009,07,30,14,44,34.20
2009,07,30,14,45,34.30
2009,07,30,14,46,34.30
2009,07,30,14,47,34.40
2009,07,30,14,48,34.40
2009,07,30,14,49,34.50
2009,07,30,14,50,34.60
2009,07,30,14,51,34.50
2009,07,30,14,52,34.40
2009,07,30,14,53,34.40
2009,07,30,14,54,34.50
2009,07,30,14,55,34.60
2009,07,30,14,56,34.60
2009,07,30,14,57,34.60
2009,07,30,14,58,34.40
2009,07,30,14,59,34.40
2009,07,30,15,00,34.30
2009,07,30,15,01,34.20
2009,07,30,15,02,34.20
2009,07,30,15,03,34.30
2009,07,30,15,04,34.30
2009,07,30,15,05,34.30
2009,07,30,15,06,34.30
2009,07,30,15,07,34.30
2009,07,30,15,08,34.40
2009,07,30,15,09,34.40
2009,07,30,15,10,34.60
2009,07,30,15,11,34.60
2009,07,30,15,12,34.60
2009,07,30,15,13,34.60
2009,07,30,15,14,34.60
2009,07,30,15,15,34.60
2009,07,30,15,16,34.60
2009,07,30,15,17,34.60
2009,07,30,15,18,34.60
2009,07,30,15,19,34.60
2009,07,30,15,20,34.60
2009,07,30,15,21,34.60
2009,07,30,15,22,34.70
2009,07,30,15,23,34.80
2009,07,30,15,24,34.90
2009,07,30,15,25,35.00
2009,07,30,15,26,35.10
2009,07,30,15,27,35.30
2009,07,30,15,28,35.30
2009,07,30,15,29,35.30
2009,07,30,15,30,35.20
2009,07,30,15,31,35.20
2009,07,30,15,32,35.20
2009,07,30,15,33,35.20
2009,07,30,15,34,35.20
2009,07,30,15,35,35.20
2009,07,30,15,36,35.20
2009,07,30,15,37,35.20
2009,07,30,15,38,35.20
2009,07,30,15,39,35.20
2009,07,30,15,40,35.10
2009,07,30,15,41,35.00
2009,07,30,15,42,34.90
2009,07,30,15,43,34.90
2009,07,30,15,44,34.80
2009,07,30,15,45,34.70
2009,07,30,15,46,34.60
2009,07,30,15,47,34.60
2009,07,30,15,48,34.60
2009,07,30,15,49,34.60
2009,07,30,15,50,34.70
2009,07,30,15,51,34.70
2009,07,30,15,52,34.70
2009,07,30,15,53,34.80
2009,07,30,15,54,34.90
2009,07,30,15,55,34.90
2009,07,30,15,56,35.00
2009,07,30,15,57,35.10
2009,07,30,15,58,35.20
2009,07,30,15,59,35.20
2009,07,30,16,00,35.10
2009,07,30,16,01,34.90
2009,07,30,16,02,34.90
2009,07,30,16,03,34.90
2009,07,30,16,04,34.80
2009,07,30,16,05,34.80
2009,07,30,16,06,34.70
2009,07,30,16,07,34.70
2009,07,30,16,08,34.70
2009,07,30,16,09,34.70
2009,07,30,16,10,34.70
2009,07,30,16,11,34.70
2009,07,30,16,12,34.70
2009,07,30,16,13,34.70
2009,07,30,16,14,34.80
2009,07,30,16,15,34.80
2009,07,30,16,16,34.90
2009,07,30,16,17,34.90
2009,07,30,16,18,35.00
2009,07,30,16,19,35.10
2009,07,30,16,20,35.10
2009,07,30,16,21,35.10
2009,07,30,16,22,35.20
2009,07,30,16,23,35.20
2009,07,30,16,24,35.20
2009,07,30,16,25,35.20
2009,07,30,16,26,35.30
2009,07,30,16,27,35.30
2009,07,30,16,28,35.30
2009,07,30,16,29,35.30
2009,07,30,16,30,35.30
2009,07,30,16,31,35.30
2009,07,30,16,32,35.30
2009,07,30,16,33,35.30
2009,07,30,16,34,35.20
2009,07,30,16,35,35.10
2009,07,30,16,36,35.10
2009,07,30,16,37,35.10
2009,07,30,16,38,35.00
2009,07,30,16,39,34.90
2009,07,30,16,40,34.90
2009,07,30,16,41,34.90
2009,07,30,16,42,34.80
2009,07,30,16,43,34.70
2009,07,30,16,44,34.70
2009,07,30,16,45,34.70
2009,07,30,16,46,34.60
2009,07,30,16,47,34.50
2009,07,30,16,48,34.40
2009,07,30,16,49,34.30
2009,07,30,16,50,34.30
2009,07,30,16,51,34.20
2009,07,30,16,52,34.10
2009,07,30,16,53,34.10
2009,07,30,16,54,34.10
2009,07,30,16,55,34.00
2009,07,30,16,56,33.90
2009,07,30,16,57,33.80
2009,07,30,16,58,33.70
2009,07,30,16,59,33.60
2009,07,30,17,00,33.50
2009,07,30,17,01,33.40
2009,07,30,17,02,33.20
2009,07,30,17,03,33.20
2009,07,30,17,04,33.10
2009,07,30,17,05,33.00
2009,07,30,17,06,33.00
2009,07,30,17,07,32.90
2009,07,30,17,08,32.90
2009,07,30,17,09,32.80
2009,07,30,17,10,32.80
2009,07,30,17,11,32.60
2009,07,30,17,12,32.60
2009,07,30,17,13,32.50
2009,07,30,17,14,32.50
2009,07,30,17,15,32.50
2009,07,30,17,16,32.50
2009,07,30,17,17,32.50
2009,07,30,17,18,32.40
2009,07,30,17,19,32.40